COSMOS 2456 (730)

Last updated on Jan. 18, 2020, 4:38 a.m. UTC

1 36111U 09070A   20017.72473170  .00000045  00000-0  00000+0 0  9997
2 36111  64.2151 151.2863 0002708 343.8860 343.9175  2.13102872 78540
UTC
Height (km)
Latitude
Longitude
Inclination
Orbital Period
UTC large
Height (km)
Speed (km/s)
/
Latitude / Longitude
Inclination (degrees)
Orbital Period (minutes)
Azimuth
Elevation
Range (km)
Doppler Factor
iOS Compass Heading
iOS Angle

Next 30 passes for location: Hong Kong

Rise time Rise Azimuth (degrees) Set time Set Azimuth (degrees) Duration Max altitude (degrees)

No matching passes for this satellites